Regional Weather Roundup
Issued by NWS Kansas City/Pleasant Hill, MO

Home | Current Version | Previous Version | Text Only | Print | Product List | Glossary On
Versions: 1 2 3 4 5 6 7 8 9 10 11 12 13 14 15 16 17 18 19 20 21 22 23 24 25 26 27 28 29 30 31 32 33 34 35 36 37 38 39 40 41 42 43 44 45 46 47 48 49 50
000
ASUS43 KEAX 011311
RWREAX

WEATHER ROUNDUP FOR EASTERN KANSAS AND NORTHWEST MISSOURI
NATIONAL WEATHER SERVICE KANSAS CITY/PLEASANT HILL MO
800 AM CDT FRI AUG 01 2014

KSZ040-057-103>105-MOZ028-029-037-043-011400-
...KANSAS CITY METROPOLITAN AREA...

CITY           SKY/WX    TMP DP  RH WIND       PRES   REMARKS
K.C. INTL      PTSUNNY   67  62  84 E6        30.08F
K.C. DOWNTOWN  CLOUDY    70  62  76 E6        30.07F
LEES SUMMIT    CLOUDY    68  63  84 NE5       30.09S
OLATHE - IXD   CLOUDY    71  62  73 CALM      30.09R
OLATHE - OJC   PTSUNNY   68  61  78 CALM      30.08R
LAWRENCE       CLOUDY    67  62  84 CALM      30.07F

$$

MOZ001>008-011>017-020>025-030>033-038>040-044>046-053-054-011400-
...NORTHERN AND CENTRAL MISSOURI...

CITY           SKY/WX    TMP DP  RH WIND       PRES   REMARKS
ST. JOSEPH     CLOUDY    68  65  90 E6        30.07F
MOSBY          LGT RAIN  64  63  94 CALM      30.09S
WARRENSBURG    PTSUNNY   64  61  88 CALM      30.09R
WHITEMAN AFB   PTSUNNY   67  57  71 W3        30.08R HAZE
CLINTON        MOSUNNY   66  66 100 SW3       30.09R
SEDALIA        MOSUNNY   67  63  87 SW5       30.09R
WARSAW         NOT AVBL
MARSHALL       PTSUNNY   70  64  83 N6        30.10R
CHILLICOTHE      N/A     67  62  84 CALM      30.10R
MOBERLY        CLOUDY    68  61  77 CALM      30.09S
KIRKSVILLE     PTSUNNY   72  61  68 NW6       30.10R

$$

MOZ041-047>049-056>058-063>065-088>090-097-011400-
...EASTERN AND SOUTHERN MISSOURI...

CITY           SKY/WX    TMP DP  RH WIND       PRES   REMARKS
ST. LOUIS INTL MOSUNNY   73  65  75 SW5       30.09S
SPIRIT OF STL  MOSUNNY   67  63  87 CALM      30.08S
COLUMBIA       SUNNY     65  62  90 CALM      30.08S
JEFFERSON CITY PTSUNNY   66  63  90 CALM      30.08S
MEXICO         MOSUNNY   70  70 100 SW6       30.08S
HANNIBAL       MOSUNNY   73  61  64 CALM      30.09R
ROLLA          SUNNY     66  64  93 SW6       30.09R
LEBANON        MOSUNNY   63  61  94 CALM      30.12S
OSAGE BEACH    SUNNY     64  61  88 CALM      30.10S
SPRINGFIELD    FOG       63  63 100 S5        30.11R VSB 1/4
BRANSON        FOG       64  64 100 CALM      30.12R VSB 1/4
NEVADA         SUNNY     66  66 100 CALM      30.11S
JOPLIN         CLOUDY    66  66 100 CALM      30.11R FOG
WEST PLAINS    CLOUDY    64  63  96 NW3       30.13R FOG

$$

IAZ060-094-KSZ022-034>040-054-083-096-NEZ052-066-093-011400-
...KANSAS...SOUTHEAST NEBRASKA AND IOWA...

CITY           SKY/WX    TMP DP  RH WIND       PRES   REMARKS
TOPEKA         CLOUDY    68  65  90 E3        30.07S
MANHATTAN      MOSUNNY   69  61  75 S3        30.04F
EMPORIA        MOSUNNY   64  62  93 CALM      30.08S
CHANUTE        FOG       64  64 100 CALM      30.10R VSB 1/4
WICHITA        MOSUNNY   65  62  90 S6        30.07S FOG
OMAHA          PTSUNNY   68  61  78 E3        30.07R
LINCOLN        SUNNY     68  59  73 E8        30.06R
FALLS CITY     SUNNY     66  62  87 E9        30.05F
LAMONI         PTSUNNY   67  61  81 E5        30.09S
DES MOINES     SUNNY     69  62  78 NE3       30.08S

$$



USA.gov is the U.S. government's official web portal to all federal, state and local government web resources and services.